When you browse on this site, cookies collect data to enhance your experience and personalize the content and advertising you see.
Visit our Privacy Policy to learn more. By continuing to use the site, you agree to this use of cookies and data.
  • In Lithuania
  • List of Countries
  • For 7 days
  • Water Temperature
  • Satellite Maps
  • Weather Map
  • Weather Widgets
  • user-avatar
    Login

    Hourly Weather Shaki

    Today, 17 January, Thursday

    Time Temperature Precipitation Wind Pressure Humidity
    00:00 +8°C° 0 mm 2 mps 727 mmHg 29%
    01:00 +8°C° 0 mm 2 mps 727 mmHg 28%
    02:00 +8°C° 0 mm 2 mps 727 mmHg 28%
    03:00 +8°C° 0 mm 2 mps 727 mmHg 28%
    04:00 +8°C° 0 mm 2 mps 727 mmHg 30%
    05:00 +7°C° 0 mm 2 mps 727 mmHg 33%
    06:00 +8°C° 0 mm 1 mps 727 mmHg 35%
    07:00 +8°C° 0.3 mm 1 mps 728 mmHg 42%
    08:00 +7°C° 0.3 mm 1 mps 728 mmHg 49%
    09:00 +8°C° 0 mm 1 mps 728 mmHg 55%
    10:00 +8°C° 0.4 mm 1 mps 728 mmHg 57%
    11:00 +8°C° 0.4 mm 1 mps 729 mmHg 59%
    12:00 +8°C° 0.4 mm 1 mps 729 mmHg 61%
    13:00 +7°C° 0.3 mm 2 mps 729 mmHg 61%
    14:00 +7°C° 0.3 mm 2 mps 730 mmHg 61%
    15:00 +7°C° 0.3 mm 3 mps 730 mmHg 62%
    16:00 +7°C° 0.1 mm 3 mps 731 mmHg 63%
    17:00 +5°C° 0.1 mm 3 mps 732 mmHg 64%
    18:00 +4°C° 0.1 mm 3 mps 733 mmHg 66%
    19:00 +4°C° 0 mm 3 mps 733 mmHg 64%
    20:00 +3°C° 0 mm 3 mps 733 mmHg 61%
    21:00 +3°C° 0 mm 4 mps 733 mmHg 59%
    22:00 +3°C° 0 mm 3 mps 734 mmHg 59%
    23:00 +2°C° 0 mm 3 mps 734 mmHg 58%

    Tomorrow, 18 January, Friday

    Time Temperature Precipitation Wind Pressure Humidity
    00:00 +3°C° 0 mm 2 mps 735 mmHg 58%
    01:00 +3°C° 0 mm 2 mps 735 mmHg 58%
    02:00 +2°C° 0 mm 2 mps 736 mmHg 58%
    03:00 +3°C° 0 mm 1 mps 736 mmHg 58%
    04:00 +3°C° 0 mm 1 mps 736 mmHg 59%
    05:00 +3°C° 0 mm 1 mps 737 mmHg 61%
    06:00 +3°C° 0 mm 1 mps 737 mmHg 62%
    07:00 +3°C° 0 mm 1 mps 738 mmHg 62%
    08:00 +4°C° 0 mm 1 mps 738 mmHg 62%
    09:00 +4°C° 0 mm 1 mps 738 mmHg 61%
    10:00 +5°C° 0 mm 1 mps 738 mmHg 60%
    11:00 +6°C° 0 mm 1 mps 738 mmHg 58%
    12:00 +6°C° 0 mm 1 mps 738 mmHg 57%
    13:00 +6°C° 0 mm 1 mps 738 mmHg 56%
    14:00 +7°C° 0 mm 1 mps 738 mmHg 54%
    15:00 +7°C° 0 mm 1 mps 738 mmHg 53%
    16:00 +6°C° 0 mm 1 mps 739 mmHg 57%
    17:00 +5°C° 0 mm 1 mps 739 mmHg 62%
    18:00 +3°C° 0 mm 2 mps 739 mmHg 66%
    19:00 +3°C° 0 mm 2 mps 740 mmHg 70%
    20:00 +2°C° 0 mm 2 mps 740 mmHg 74%
    21:00 +2°C° 0 mm 2 mps 740 mmHg 78%
    22:00 +3°C° 0 mm 1 mps 740 mmHg 78%
    23:00 +3°C° 0 mm 1 mps 740 mmHg 77%

    Day after tomorrow, 19 January, Saturday

    Time Temperature Precipitation Wind Pressure Humidity
    00:00 +3°C° 0 mm 1 mps 740 mmHg 77%
    01:00 +2°C° 0 mm 1 mps 740 mmHg 75%
    02:00 +2°C° 0 mm 1 mps 739 mmHg 74%
    03:00 +2°C° 0 mm 1 mps 739 mmHg 73%
    04:00 +2°C° 0 mm 1 mps 739 mmHg 71%
    05:00 +2°C° 0 mm 1 mps 739 mmHg 69%
    06:00 +2°C° 0 mm 1 mps 739 mmHg 67%
    07:00 +3°C° 0 mm 1 mps 739 mmHg 63%
    08:00 +4°C° 0 mm 1 mps 739 mmHg 59%
    09:00 +5°C° 0 mm 1 mps 739 mmHg 55%
    10:00 +6°C° 0 mm 1 mps 738 mmHg 52%
    11:00 +6°C° 0 mm 2 mps 738 mmHg 49%
    12:00 +7°C° 0 mm 2 mps 737 mmHg 47%
    13:00 +7°C° 0 mm 2 mps 737 mmHg 47%
    14:00 +8°C° 0 mm 1 mps 737 mmHg 47%
    15:00 +8°C° 0 mm 1 mps 736 mmHg 47%
    16:00 +7°C° 0 mm 1 mps 737 mmHg 49%
    17:00 +6°C° 0 mm 1 mps 737 mmHg 51%
    18:00 +5°C° 0 mm 1 mps 737 mmHg 54%
    19:00 +5°C° 0 mm 1 mps 738 mmHg 52%
    20:00 +4°C° 0 mm 1 mps 738 mmHg 51%
    21:00 +4°C° 0 mm 1 mps 738 mmHg 50%
    22:00 +4°C° 0 mm 1 mps 738 mmHg 48%
    23:00 +4°C° 0 mm 1 mps 738 mmHg 47%

    20 January, Sunday

    Time Temperature Precipitation Wind Pressure Humidity
    00:00 +3°C° 0 mm 1 mps 738 mmHg 45%
    01:00 +3°C° 0 mm 1 mps 738 mmHg 42%
    02:00 +3°C° 0 mm 1 mps 738 mmHg 40%
    03:00 +2°C° 0 mm 2 mps 738 mmHg 37%
    04:00 +2°C° 0 mm 2 mps 738 mmHg 34%
    05:00 +2°C° 0 mm 2 mps 738 mmHg 31%
    06:00 +2°C° 0 mm 2 mps 738 mmHg 27%
    07:00 +3°C° 0 mm 2 mps 738 mmHg 26%
    08:00 +4°C° 0 mm 2 mps 739 mmHg 25%
    09:00 +5°C° 0 mm 2 mps 739 mmHg 24%
    10:00 +6°C° 0 mm 2 mps 739 mmHg 23%
    11:00 +7°C° 0 mm 2 mps 739 mmHg 23%
    12:00 +8°C° 0 mm 2 mps 738 mmHg 22%
    13:00 +8°C° 0 mm 2 mps 738 mmHg 23%
    14:00 +9°C° 0 mm 2 mps 738 mmHg 24%
    15:00 +10°C° 0 mm 1 mps 738 mmHg 25%
    16:00 +8°C° 0 mm 1 mps 738 mmHg 27%
    17:00 +7°C° 0 mm 1 mps 739 mmHg 30%
    18:00 +6°C° 0 mm 1 mps 739 mmHg 33%
    19:00 +6°C° 0 mm 1 mps 739 mmHg 33%
    20:00 +5°C° 0 mm 1 mps 740 mmHg 33%
    21:00 +5°C° 0 mm 1 mps 740 mmHg 33%
    22:00 +5°C° 0 mm 1 mps 740 mmHg 33%
    23:00 +4°C° 0 mm 1 mps 740 mmHg 33%

    21 January, Monday

    Time Temperature Precipitation Wind Pressure Humidity
    00:00 +4°C° 0 mm 1 mps 740 mmHg 33%
    01:00 +4°C° 0 mm 1 mps 740 mmHg 34%
    02:00 +3°C° 0 mm 1 mps 740 mmHg 34%
    03:00 +3°C° 0 mm 1 mps 740 mmHg 34%
    04:00 +3°C° 0 mm 1 mps 740 mmHg 33%
    05:00 +3°C° 0 mm 1 mps 740 mmHg 32%
    06:00 +2°C° 0 mm 1 mps 740 mmHg 32%
    07:00 +3°C° 0 mm 1 mps 740 mmHg 30%
    08:00 +5°C° 0 mm 1 mps 740 mmHg 29%
    09:00 +6°C° 0 mm 1 mps 740 mmHg 28%
    10:00 +6°C° 0 mm 1 mps 740 mmHg 27%
    11:00 +7°C° 0 mm 1 mps 739 mmHg 26%
    12:00 +8°C° 0 mm 1 mps 739 mmHg 26%
    13:00 +8°C° 0 mm 1 mps 738 mmHg 26%
    14:00 +8°C° 0 mm 1 mps 738 mmHg 26%
    15:00 +8°C° 0 mm 1 mps 738 mmHg 27%
    16:00 +7°C° 0 mm 1 mps 738 mmHg 29%
    17:00 +6°C° 0 mm 1 mps 738 mmHg 31%
    18:00 +5°C° 0 mm 1 mps 738 mmHg 34%
    19:00 +4°C° 0 mm 1 mps 738 mmHg 34%
    20:00 +4°C° 0 mm 1 mps 738 mmHg 35%
    21:00 +4°C° 0 mm 1 mps 738 mmHg 35%
    22:00 +3°C° 0 mm 1 mps 737 mmHg 36%
    23:00 +2°C° 0 mm 2 mps 737 mmHg 36%

    22 January, Tuesday

    Time Temperature Precipitation Wind Pressure Humidity
    00:00 +2°C° 0 mm 2 mps 737 mmHg 36%
    01:00 +2°C° 0 mm 2 mps 737 mmHg 37%
    02:00 +2°C° 0 mm 2 mps 736 mmHg 37%
    03:00 +1°C° 0 mm 3 mps 736 mmHg 38%
    04:00 +1°C° 0 mm 3 mps 736 mmHg 37%
    05:00 0°C° 0 mm 3 mps 736 mmHg 36%
    06:00 0°C° 0 mm 3 mps 735 mmHg 35%
    07:00 +1°C° 0 mm 3 mps 735 mmHg 35%
    08:00 +3°C° 0 mm 4 mps 735 mmHg 34%
    09:00 +4°C° 0 mm 4 mps 735 mmHg 33%
    10:00 +5°C° 0 mm 4 mps 735 mmHg 32%
    11:00 +6°C° 0 mm 5 mps 735 mmHg 31%
    12:00 +8°C° 0 mm 5 mps 735 mmHg 31%
    13:00 +8°C° 0 mm 4 mps 735 mmHg 31%
    14:00 +10°C° 0 mm 4 mps 735 mmHg 32%
    15:00 +10°C° 0 mm 4 mps 736 mmHg 32%
    16:00 +9°C° 0 mm 3 mps 736 mmHg 34%
    17:00 +7°C° 0 mm 3 mps 737 mmHg 36%
    18:00 +6°C° 0 mm 2 mps 738 mmHg 38%
    19:00 +6°C° 0 mm 2 mps 738 mmHg 36%
    20:00 +5°C° 0 mm 2 mps 739 mmHg 34%
    21:00 +5°C° 0 mm 2 mps 739 mmHg 33%
    22:00 +5°C° 0 mm 2 mps 739 mmHg 35%
    23:00 +4°C° 0 mm 2 mps 740 mmHg 38%
    Show more